Home > Weather > Rodgau > Past weeks

Flag for Germany Past Weather in Rodgau, Hesse, Germany — Yesterday and Last 2 Weeks

Now
63 °F

Thunderstorms. Partly sunny.


Feels Like: 63 °F
Forecast: 52 / 75 °F
Wind: 16 mph from North

Location: Frankfurt-M-Flughafen Airport

Current Time: May 27, 2016 at 8:24:59 PM

Latest Report: May 27, 2016 at 7:50 PM


Visibility: 4 mi

Pressure: 29.95 "Hg

Humidity: 77%

Dew Point: 55 °F

Location of RodgauLocation

Past Weather in Rodgau — Graph

°F

Rodgau Temperature Yesterday

Maximum temperature yesterday: 75 °F (at 4:50 PM)
Minimum temperature yesterday: 45 °F (at 4:20 AM)
Average temperature yesterday: 61 °F

High & Low Weather Summary for the Past Weeks

 TemperatureHumidityPressure
High81 °F (May 22, 3:20 PM)100% (May 13, 11:50 PM)30.12 "Hg (May 13, 11:50 PM)
Low41 °F (May 15, 5:50 AM)24% (May 22, 3:50 PM)29.45 "Hg (May 12, 8:20 PM)
Average57 °F69%29.93 "Hg
* Reported May 12 7:20 PM — May 27 7:20 PM, Rodgau, Weather by CustomWeather, © 2016

Note: Actual official high and low records may vary slightly from our data, if they occured in-between our weather recording intervals... More about our weather records

Advertising

Rodgau Weather History for the Previous 24 Hours

Scroll right to see more
 ConditionsComfort  
Time TempWeatherWind HumidityBarometerVisibility
7:20 PM
Fri, May 27
64 °FThunderstorms. Broken clouds.20 mph73%29.98 "HgN/A
6:50 PM72 °FThundershowers. Broken clouds.7 mph61%29.92 "HgN/A
6:20 PM72 °FScattered showers. Partly sunny.7 mph61%29.92 "HgN/A
5:50 PM73 °FPartly sunny.7 mph57%29.92 "HgN/A
5:20 PM73 °FPartly sunny.6 mph57%29.95 "HgN/A
4:50 PM73 °FBroken clouds.2 mph57%29.95 "HgN/A
4:20 PM73 °FPartly sunny.5 mph57%29.95 "HgN/A
3:50 PM73 °FPartly sunny.5 mph57%29.95 "HgN/A
3:20 PM72 °FPartly sunny.3 mph57%29.95 "HgN/A
2:50 PM73 °FScattered clouds.5 mph57%29.98 "HgN/A
2:20 PM72 °FBroken clouds.2 mph61%29.95 "HgN/A
1:50 PM72 °FBroken clouds.2 mph61%29.98 "HgN/A
1:20 PM70 °FPartly sunny.6 mph64%29.98 "HgN/A
12:50 PM70 °FScattered clouds.6 mph60%29.98 "HgN/A
12:20 PM68 °FPassing clouds.6 mph69%29.98 "HgN/A
11:50 AM66 °FPassing clouds.8 mph68%29.98 "HgN/A
11:20 AM64 °FScattered clouds.8 mph78%29.98 "HgN/A
10:50 AM63 °FBroken clouds.8 mph77%29.98 "HgN/A
10:20 AM61 °FSprinkles. Broken clouds.8 mph83%29.98 "HgN/A
9:50 AM61 °FPartly sunny.6 mph77%30.01 "HgN/A
9:20 AM61 °FPartly sunny.7 mph77%30.01 "HgN/A
8:50 AM59 °FBroken clouds.9 mph88%30.01 "HgN/A
8:20 AM57 °FPartly sunny.9 mph88%30.01 "HgN/A
7:50 AM59 °FBroken clouds.8 mph88%29.98 "HgN/A
7:20 AM57 °FPartly sunny.10 mph94%29.98 "HgN/A
6:50 AM57 °FBroken clouds.9 mph94%29.98 "HgN/A
6:20 AM57 °FPartly cloudy.8 mph94%29.98 "HgN/A
5:50 AM59 °FLight rain. Partly cloudy.15 mph82%29.95 "HgN/A
5:20 AM57 °FRain showers. Partly cloudy.9 mph94%29.98 "Hg4 mi
4:50 AM57 °FRain showers. Partly cloudy.6 mph94%29.98 "Hg4 mi
4:20 AM57 °FSprinkles. Mostly cloudy.6 mph94%29.98 "HgN/A
3:50 AM61 °FLight rain. Mostly cloudy.9 mph72%29.95 "HgN/A
3:20 AM63 °FLight rain. Partly cloudy.5 mph64%29.95 "HgN/A
2:50 AM63 °FClear.10 mph64%29.92 "Hg10 mi
2:20 AM63 °FPassing clouds.6 mph68%29.95 "HgN/A
1:50 AM61 °FClear.5 mph72%29.95 "Hg10 mi
1:20 AM63 °FClear.5 mph68%29.95 "Hg10 mi
12:50 AM64 °FClear.8 mph60%29.95 "Hg10 mi
12:20 AM64 °FClear.8 mph60%29.95 "Hg10 mi
11:50 PM
Thu, May 26
64 °FClear.6 mph60%29.98 "Hg10 mi
11:20 PM64 °FClear.6 mph64%29.95 "Hg10 mi
10:50 PM66 °FClear.7 mph56%29.98 "Hg10 mi
10:20 PM66 °FPassing clouds.6 mph56%29.98 "HgN/A
9:50 PM70 °FPassing clouds.8 mph46%29.98 "HgN/A
9:20 PM70 °FSunny.10 mph46%29.95 "Hg10 mi
8:50 PM70 °FPassing clouds.9 mph43%29.95 "HgN/A
8:20 PM70 °FPassing clouds.10 mph43%29.95 "HgN/A
Weather by CustomWeather, © 2016

See weather overviewHow to use our weather pages